283  
ASUS44 KSHV 251310  
RWRSHV  
 
THE FOUR STATE AREA WEATHER ROUNDUP  
NATIONAL WEATHER SERVICE SHREVEPORT LA  
800 AM CDT MON OCT 25 2021  
 
NOTE: "FAIR" INDICATES FEW OR NO CLOUDS BELOW 12000 FEET  
WITH NO SIGNIFICANT WEATHER AND/OR S TO VISIBILITY
.  
 
!LAZ001-LAZ014-TXZ097-251400  
SHREVEPORT...MONROE...TEXARKANA RADIOS  
 
CITY SKY/WX TMP DP RH WIND PRES REMARKS
 
SHREVEPORT MOCLDY 74 69 85 SW6 29.94S  
MONROE CLOUDY 71 70 96 SW3 29.95R  
NATCHITOCHES CLOUDY 69 69 100 CALM 29.96R  
TEXARKANA CLEAR 65 62 90 CALM 29.95S  

 
 
!LAZ001-LAZ014-TXZ097-251400  
OTHER LOCATIONS...  
 
CITY SKY/WX TMP DP RH WIND PRES REMARKS
 
DOWNTOWN SHV MOCLDY 73 71 93 MISG 29.95R  
BOSSIER CITY PTCLDY 73 69 88 W6 29.94R  
RUSTON CLOUDY 71 69 93 SW3 29.97F  
LITTLE ROCK CLEAR 59 57 93 SW6 29.94R  
EL DORADO PTCLDY 68 64 87 N5 29.95R  
JACKSON CLOUDY 71 68 90 SW6 29.94R FOG  
NEW ORLEANS PTCLDY 73 71 93 CALM 29.96R  
HOUSTON MOCLDY 77 73 87 CALM 29.95R  
LUFKIN CLOUDY 74 72 93 W5 29.96R  
TYLER CLEAR 67 63 87 CALM 29.96R  
DAL FT WORTH PTCLDY 63 55 75 E3 29.95R  

 
 
!TXZ136-TXZ165-251400  
TYLER...LUFKIN RADIOS  
 
CITY SKY/WX TMP DP RH WIND PRES REMARKS
 
TYLER CLEAR 67 63 87 CALM 29.96R  
GILMER SUNNY N/A N/A N/A CALM 29.97  
LONGVIEW PTCLDY 69 67 93 CALM 29.95R  
LUFKIN CLOUDY 74 72 93 W5 29.96R  

 
 
!TXZ136-TXZ165-251400  
OTHER LOCATIONS...  
 
CITY SKY/WX TMP DP RH WIND PRES REMARKS
 
NACOGDOCHES FOG 73 72 96 CALM 29.97R VSB 3/4  
BEAUMONT FOG 72 72 100 NW6 29.96R VSB 1/4  
HOUSTON MOCLDY 77 73 87 CALM 29.95R  
COLLEGE STN CLOUDY 75 71 87 W3 29.95R  
AUSTIN CLOUDY 74 72 93 W3 29.95R  
DAL FT WORTH PTCLDY 63 55 75 E3 29.95R  
TEXARKANA CLEAR 65 62 90 CALM 29.95S  
SHREVEPORT MOCLDY 74 69 85 SW6 29.94S  
FORT POLK CLOUDY 72 72 100 W6 29.95R FOG  
LAKE CHARLES FOG 73 73 100 NW3 29.96R VSB<1/4  

 
 
 
CLICK HERE TO GO TO PREVIOUS BULLETINS.

The Nexlab LA Page
The Nexlab TX Page
The Nexlab AR Page
The Nexlab OK Page Main Text Page